Location: Gołkowice
(49.9691°N, 19.9755°E)
Time: 23:18:24
(UTC+02:00)

ISS - Visible Passes

Search period start: 22 September 2018 00:00
Search period end: 02 October 2018 00:00
Orbit: 403 x 408 km, 51.6° (Epoch: 23 September)

Date Brightness Start Highest point End Pass type
(mag) Time Alt. Az. Time Alt. Az. Time Alt. Az.
22 Sep -1.9 20:27:36 10° SSW 20:28:53 19° S 20:28:53 19° S visible
23 Sep -2.1 19:36:27 10° S 19:38:46 18° SE 19:39:38 16° ESE visible
23 Sep -1.2 21:11:35 10° WSW 21:12:21 16° WSW 21:12:21 16° WSW visible
24 Sep -3.5 20:19:50 10° SW 20:22:54 49° SSE 20:22:54 49° SSE visible
25 Sep -2.9 19:28:14 10° SSW 19:31:14 33° SSE 19:33:18 17° E visible
25 Sep -1.9 21:04:16 10° W 21:05:59 28° W 21:05:59 28° W visible
26 Sep -3.9 20:12:21 10° WSW 20:15:39 82° SSE 20:16:15 56° E visible
27 Sep -3.7 19:20:30 10° SW 19:23:45 58° SSE 19:26:26 14° ENE visible
27 Sep -2.2 20:57:00 10° W 20:59:06 35° WNW 20:59:06 35° WNW visible
28 Sep -3.7 20:05:00 10° W 20:08:18 73° N 20:09:12 44° ENE visible
28 Sep -0.4 21:41:40 10° WNW 21:41:52 11° WNW 21:41:52 11° WNW visible
29 Sep -3.8 19:13:01 10° WSW 19:16:19 89° NNE 19:19:14 13° ENE visible
29 Sep -2.3 20:49:40 10° W 20:51:54 38° WNW 20:51:54 38° WNW visible
30 Sep -3.6 19:57:39 10° W 20:00:56 63° N 20:01:54 40° ENE visible
30 Sep -0.4 21:34:15 10° WNW 21:34:34 12° WNW 21:34:34 12° WNW visible
01 Oct -3.6 19:05:36 10° W 19:08:54 69° N 19:11:53 12° ENE visible
01 Oct -2.5 20:42:16 10° WNW 20:44:32 40° WNW 20:44:32 40° WNW visible
